[[{"header":{"parameterUnit":"m.s-1","parameterCategory":2,"la1":30.2991,"la2":30.254,"lo1":-89.0895,"lo2":-89.0444,"dy":0.0017,"dx":0.0017,"nx":28,"ny":28,"refTime":"2024-08-03T21:00:00:Z","depth":"0","parameterNumber":2,"parameterNumberName":"U-component_of_CURRENTS"},"data":[0,0,0,0,0,0,0,0,0,0,0,0,0,0,0,0,0,0,0,0,0,0,0,0,0,0,0,0,0,0,0,0,0,0,0,0,0,0,0,0,0,0,0,0,0,0,0,0,0,0,0,0,0,0,0,0,0,0,-0.3669,-0.367,0,-0.3794,-0.3795,-0.3797,-0.3862,-0.3862,-0.3862,-0.3862,-0.4105,-0.4111,-0.4118,0,0,0,0,0,0,0,0,0,0,0,0,0,-0.3468,-0.3472,-0.3669,-0.367,-0.3672,-0.3794,-0.3795,-0.3797,-0.3862,-0.3862,-0.3862,-0.3862,-0.4103,-0.411,-0.4118,0,0,0,0,0,0,0,0,0,0,0,0,0,-0.3572,-0.3473,-0.3669,-0.3718,-0.3724,-0.3793,-0.3795,-0.3798,-0.3862,-0.3862,-0.3862,-0.3862,-0.41,-0.411,-0.4119,-0.4179,0,0,-0.4149,-0.4153,0,0,0,0,0,0,0,0,-0.3566,-0.3579,-0.3709,-0.3715,-0.3721,-0.3811,-0.3814,-0.3931,-0.3862,-0.3811,-0.3862,-0.3862,-0.4017,-0.4034,-0.4057,-0.4191,-0.4201,-0.415,-0.4156,-0.416,-0.4163,0,0,0,0,0,0,0,-0.3558,-0.3574,-0.3719,-0.3711,-0.3718,-0.3728,-0.3743,-0.3836,-0.3915,-0.3815,-0.382,-0.3832,-0.4021,-0.4047,-0.4063,-0.4205,-0.4149,-0.4158,-0.4164,-0.4168,-0.4325,-0.4323,0,0,0,0,0,0,-0.3543,-0.3568,-0.3715,-0.3723,-0.3641,-0.3731,-0.3748,-0.3783,-0.3912,-0.393,-0.3832,-0.3835,-0.4031,-0.4052,-0.4072,-0.4094,-0.416,-0.4169,-0.4174,-0.4327,-0.4325,-0.4323,0,0,0,0,0,0,-0.3538,-0.3556,-0.371,-0.3645,-0.3666,-0.3735,-0.3774,-0.3786,-0.3809,-0.3923,-0.3944,-0.3842,-0.4031,-0.4059,-0.4113,-0.4106,-0.4173,-0.4182,-0.4328,-0.4326,-0.4324,-0.4175,0,0,0,0,0,0,-0.3532,-0.3554,-0.3569,-0.3645,-0.3669,-0.3744,-0.3774,-0.3788,-0.3817,-0.3821,-0.394,-0.3962,-0.4034,-0.4097,-0.4122,-0.4121,-0.419,-0.4331,-0.4327,-0.4324,-0.4182,-0.4168,-0.4155,0,0,0,0,0,-0.3525,-0.354,-0.357,-0.3587,-0.369,-0.3743,-0.3756,-0.3805,-0.3817,-0.3826,-0.3875,-0.3958,-0.4096,-0.4104,-0.4134,-0.4135,-0.4332,-0.4328,-0.4325,-0.4188,-0.417,-0.4156,0,0,0,0,0,0,-0.3451,-0.3551,-0.3584,-0.3627,-0.3678,-0.3754,-0.3761,-0.3798,-0.3846,-0.3846,-0.3944,-0.397,-0.4017,-0.4089,-0.4095,-0.4166,-0.4227,-0.4229,-0.4112,-0.4097,-0.4084,-0.4069,-0.4198,0,0,0,0,0,-0.3445,-0.3482,-0.3573,-0.3596,-0.3624,-0.3691,-0.3716,-0.3754,-0.3807,-0.3828,-0.3902,-0.3972,-0.4027,-0.4068,-0.4139,-0.4186,-0.4182,-0.4202,-0.4189,-0.4177,-0.4181,-0.4167,-0.4152,-0.4311,-0.4311,-0.4311,0,0,-0.3415,-0.3474,-0.3493,-0.3582,-0.3623,-0.3645,-0.3706,-0.3739,-0.3751,-0.3851,-0.3878,-0.394,-0.4028,-0.4064,-0.4093,-0.4124,-0.4107,-0.4172,-0.4162,-0.4173,-0.4161,-0.4146,-0.4132,-0.4308,-0.4309,-0.4309,0,0,-0.3342,-0.3433,-0.3424,-0.3477,-0.3543,-0.3601,-0.3607,-0.3685,-0.3717,-0.3757,-0.3811,-0.3846,-0.396,-0.3996,-0.4033,-0.3993,-0.4038,-0.4028,-0.3957,-0.3941,-0.3928,-0.3917,-0.3787,-0.3765,-0.4021,-0.402,-0.402,0,-0.3276,-0.3319,-0.3423,-0.3429,-0.3462,-0.3573,-0.3566,-0.362,-0.3698,-0.3709,-0.3747,-0.3843,-0.3921,-0.3938,-0.3921,-0.3965,-0.393,-0.4009,-0.3922,-0.3912,-0.3903,-0.3774,-0.3752,-0.4013,-0.4014,-0.4014,-0.4015,0,-0.32,-0.3242,-0.324,-0.3297,-0.3348,-0.3368,-0.3467,-0.3502,-0.356,-0.3607,-0.3645,-0.3727,-0.378,-0.3806,-0.3862,-0.3839,-0.3817,-0.3903,-0.3957,-0.3877,-0.3745,-0.3725,-0.4002,-0.4005,-0.4007,-0.4009,0,0,-0.3005,-0.3152,-0.3144,-0.3181,-0.3291,-0.3326,-0.3353,-0.3409,-0.3411,-0.3493,-0.3481,-0.3571,-0.362,-0.3664,-0.3731,-0.3729,-0.3603,-0.3787,-0.3789,-0.3644,-0.3474,-0.3343,-0.3308,-0.3682,-0.368,-0.3679,-0.3368,0,-0.2891,-0.2909,-0.3004,-0.3019,-0.3056,-0.3177,-0.3193,-0.3263,-0.3333,-0.3356,-0.3438,-0.3466,-0.3568,-0.358,-0.3594,-0.3632,-0.3562,-0.3674,-0.3586,-0.3581,-0.3468,-0.3287,-0.3175,-0.2882,-0.3348,-0.3345,-0.3343,0,-0.2767,-0.2817,-0.2823,-0.2939,-0.2954,-0.2968,-0.3039,-0.3072,-0.3143,-0.3187,-0.3235,-0.3312,-0.3324,-0.3429,-0.3399,-0.3468,-0.3446,-0.3457,-0.3447,-0.3379,-0.3417,-0.3062,-0.283,-0.2829,-0.3313,-0.3315,-0.3317,0,-0.2626,-0.2688,-0.2706,-0.2744,-0.2872,-0.2872,-0.2923,-0.3003,-0.3018,-0.3074,-0.3066,-0.3131,-0.3128,-0.3166,-0.3212,-0.3293,-0.315,-0.326,-0.3084,-0.307,-0.2986,-0.2969,-0.2745,-0.3184,-0.3185,-0.3185,-0.3186,0,-0.2509,-0.2518,-0.2643,-0.2663,-0.2654,-0.2774,-0.2755,-0.2816,-0.2861,-0.2855,-0.2967,-0.295,-0.3074,-0.3042,-0.3104,-0.2994,-0.3043,-0.3005,-0.2982,-0.2917,-0.2899,-0.2913,-0.2985,-0.3174,-0.3176,-0.3179,-0.3181,0,-0.238,-0.2461,-0.2491,-0.259,-0.2605,-0.2606,-0.2659,-0.2646,-0.2701,-0.2688,-0.2689,-0.2753,-0.2701,-0.2759,-0.2762,-0.2788,-0.2684,-0.2694,-0.2546,-0.2513,-0.2365,-0.2434,-0.2189,-0.2133,-0.2408,-0.2403,-0.2399,0,-0.233,-0.2334,-0.2416,-0.2415,-0.2455,-0.2471,-0.2467,-0.2552,-0.2557,-0.2573,-0.2549,-0.2482,-0.2451,-0.2341,-0.2356,-0.229,-0.2413,-0.215,-0.2308,-0.2263,-0.2326,-0.2393,-0.2373,-0.208,-0.2074,-0.2069,-0.2064,0,-0.2216,-0.2241,-0.2262,-0.2274,-0.2274,-0.2291,-0.2312,-0.2303,-0.2389,-0.236,-0.2325,-0.2282,-0.2141,-0.2041,-0.194,-0.1933,-0.2096,-0.2034,-0.2059,-0.2075,-0.2065,-0.2033,-0.2316,-0.2017,-0.2021,-0.2025,-0.2027,-0.2029,-0.2098,-0.2079,-0.21,-0.2107,-0.2121,-0.2142,-0.209,-0.2129,-0.2116,-0.2055,-0.2121,-0.1995,-0.1889,-0.1727,-0.169,-0.1569,-0.1692,-0.1591,-0.1666,-0.1727,-0.1716,-0.1824,-0.1494,-0.1495,-0.1497,-0.1498,-0.1499,0,-0.1936,-0.1937,-0.1934,-0.1964,-0.1962,-0.1996,-0.1986,-0.19,-0.1844,-0.1794,-0.1735,-0.1675,-0.1536,-0.1469,-0.1354,-0.1279,-0.1307,-0.1262,-0.1375,-0.1369,-0.1491,-0.1526,-0.1103,-0.1103,-0.1104,-0.1104,-0.1104,-0.1104,-0.1839,-0.1781,-0.1808,-0.1801,-0.1816,-0.169,-0.1644,-0.1551,-0.1457,-0.1315,-0.1256,-0.1202,-0.1259,-0.1366,-0.126,-0.1187,-0.1223,-0.1124,-0.1199,-0.1365,-0.1406,-0.1444,-0.1491,-0.1068,-0.1068,-0.1025,-0.1025,-0.1025]},{"header":{"parameterUnit":"m.s-1","parameterCategory":2,"la1":30.2991,"la2":30.254,"lo1":-89.0895,"lo2":-89.0444,"dy":0.0017,"dx":0.0017,"nx":28,"ny":28,"refTime":"2024-08-03T21:00:00:Z","depth":"0","parameterNumber":3,"parameterNumberName":"V-component_of_CURRENTS"},"data":[0,0,0,0,0,0,0,0,0,0,0,0,0,0,0,0,0,0,0,0,0,0,0,0,0,0,0,0,0,0,0,0,0,0,0,0,0,0,0,0,0,0,0,0,0,0,0,0,0,0,0,0,0,0,0,0,0,0,-0.0506,-0.0504,0,-0.0253,-0.0249,-0.0246,-0.0052,-0.0051,-0.005,-0.0049,0.0316,0.0324,0.0333,0,0,0,0,0,0,0,0,0,0,0,0,0,-0.0685,-0.0683,-0.0506,-0.0503,-0.0501,-0.0254,-0.0249,-0.0245,-0.0052,-0.0051,-0.005,-0.0048,0.0313,0.0323,0.0334,0,0,0,0,0,0,0,0,0,0,0,0,0,-0.053,-0.0682,-0.0506,-0.0381,-0.0368,-0.0254,-0.0249,-0.0244,-0.0053,-0.0051,-0.0049,-0.0048,0.0309,0.0322,0.0335,0.0384,0,0,0.0375,0.0381,0,0,0,0,0,0,0,0,-0.0539,-0.0523,-0.0402,-0.039,-0.0375,-0.019,-0.0179,-0.0031,-0.0053,-0.0164,-0.0049,-0.0047,0.015,0.0177,0.0231,0.0401,0.0417,0.0376,0.0384,0.039,0.0393,0,0,0,0,0,0,0,-0.055,-0.0532,-0.0397,-0.04,-0.0383,-0.0292,-0.0268,-0.0149,-0.001,-0.0154,-0.0141,-0.0127,0.016,0.0218,0.0241,0.0422,0.0376,0.0387,0.0396,0.0401,0.0665,0.0664,0,0,0,0,0,0,-0.0607,-0.0543,-0.0405,-0.0391,-0.0464,-0.0291,-0.0264,-0.0244,-0.0013,0.002,-0.0128,-0.0119,0.0195,0.0226,0.0255,0.03,0.039,0.0402,0.0409,0.0666,0.0665,0.0664,0,0,0,0,0,0,-0.0612,-0.0597,-0.0416,-0.0468,-0.0439,-0.0291,-0.0269,-0.024,-0.0183,0.0003,0.0041,-0.0103,0.0197,0.0236,0.0345,0.0316,0.0408,0.042,0.0667,0.0665,0.0664,0.0407,0,0,0,0,0,0,-0.0618,-0.06,-0.0602,-0.0472,-0.0439,-0.0367,-0.027,-0.0237,-0.0181,-0.0165,0.0037,0.0073,0.0201,0.0324,0.0358,0.0336,0.043,0.0668,0.0666,0.0665,0.0416,0.0397,0.038,0,0,0,0,0,-0.0625,-0.0634,-0.0604,-0.0587,-0.0447,-0.0369,-0.0343,-0.0226,-0.0182,-0.0166,-0.0036,0.0067,0.0339,0.0334,0.0374,0.0355,0.0669,0.0667,0.0665,0.0424,0.0401,0.0381,0,0,0,0,0,0,-0.0702,-0.0612,-0.0576,-0.0554,-0.0482,-0.034,-0.0316,-0.0247,-0.0131,-0.0115,0.006,0.0105,0.0188,0.0308,0.0298,0.0428,0.052,0.0525,0.0323,0.0303,0.0285,0.0237,0.0441,0,0,0,0,0,-0.0731,-0.0716,-0.0618,-0.0603,-0.0578,-0.0456,-0.0411,-0.0339,-0.0226,-0.0173,-0.004,0.0101,0.0212,0.0282,0.0405,0.0477,0.0573,0.0492,0.0473,0.0457,0.0446,0.0546,0.0535,0.0658,0.0658,0.0658,0,0,-0.0757,-0.0708,-0.0698,-0.0621,-0.0553,-0.0525,-0.0422,-0.0371,-0.0345,-0.0153,-0.0076,0.0042,0.0216,0.0293,0.0342,0.039,0.0471,0.0455,0.0439,0.0438,0.0543,0.0531,0.052,0.0656,0.0657,0.0657,0,0,-0.0803,-0.0766,-0.0767,-0.0726,-0.0654,-0.0584,-0.0586,-0.0466,-0.041,-0.0333,-0.0199,-0.0112,0.0079,0.0179,0.0258,0.0216,0.0366,0.0263,0.0141,0.0236,0.0226,0.0219,0.0303,0.0305,0.0259,0.0258,0.0258,0,-0.0834,-0.082,-0.0756,-0.0751,-0.0729,-0.0628,-0.0628,-0.0565,-0.0425,-0.0388,-0.034,-0.0106,0.0019,0.0112,0.0089,0.0171,0.0253,0.0199,0.0208,0.0203,0.0199,0.0288,0.0294,0.0246,0.0247,0.0248,0.0249,0,-0.0871,-0.0869,-0.0873,-0.0837,-0.0813,-0.0797,-0.0726,-0.0688,-0.0622,-0.0545,-0.0454,-0.03,-0.0158,-0.012,-0.0028,0.001,0.0083,0.0161,0.0246,0.017,0.027,0.028,0.0227,0.0232,0.0236,0.0239,0,0,-0.0898,-0.0897,-0.0896,-0.0905,-0.086,-0.0838,-0.0831,-0.0772,-0.0745,-0.0653,-0.0601,-0.0476,-0.0401,-0.0309,-0.0191,-0.0126,-0.0104,-0.0016,-0.0005,0.0038,0.0102,0.0129,0.0145,-0.0025,-0.0024,-0.0023,0.0171,0,-0.0934,-0.0969,-0.0949,-0.0978,-0.0992,-0.0933,-0.0922,-0.0871,-0.0803,-0.0729,-0.0621,-0.0514,-0.0469,-0.0394,-0.0347,-0.0127,-0.0084,-0.0164,0.0197,0.0207,0.0217,0.0155,0.0172,0.0345,0.0182,0.0184,0.0186,0,-0.0962,-0.0986,-0.1037,-0.1049,-0.1045,-0.1048,-0.1015,-0.0989,-0.0894,-0.083,-0.0759,-0.0641,-0.0539,-0.0479,-0.0247,-0.0295,-0.0146,-0.0004,0.001,0.0134,0.0254,0.0406,0.0372,0.0502,0.0203,0.0202,0.0201,0,-0.1015,-0.1038,-0.1089,-0.1095,-0.1094,-0.1101,-0.1086,-0.1023,-0.0978,-0.0885,-0.0816,-0.0703,-0.0579,-0.0425,-0.0185,-0.0196,0.0093,0.014,0.0289,0.0295,0.0431,0.0445,0.0543,0.027,0.027,0.0269,0.0268,0,-0.1061,-0.1094,-0.1118,-0.1148,-0.1177,-0.1162,-0.1155,-0.1116,-0.1031,-0.0958,-0.0873,-0.0768,-0.0556,-0.0367,-0.0194,0.0074,0.0087,0.0251,0.034,0.034,0.0344,0.0567,0.0621,0.0276,0.0275,0.0273,0.0272,0,-0.1115,-0.1132,-0.1184,-0.1207,-0.1209,-0.1233,-0.1192,-0.1166,-0.1088,-0.0986,-0.0946,-0.077,-0.0532,-0.0324,-0.0009,0.0107,0.0438,0.0437,0.0406,0.0484,0.0702,0.0741,0.0951,0.1035,0.062,0.0621,0.0623,0,-0.1149,-0.1187,-0.1231,-0.1246,-0.1258,-0.1272,-0.1259,-0.1201,-0.1151,-0.0969,-0.0906,-0.0677,-0.0492,-0.0074,0.0174,0.0464,0.0559,0.064,0.0597,0.0694,0.0806,0.0819,0.0875,0.0687,0.0689,0.069,0.0691,0,-0.1205,-0.1218,-0.1254,-0.1288,-0.1299,-0.1299,-0.1274,-0.1222,-0.1112,-0.0979,-0.0775,-0.0615,-0.0276,0.0055,0.0385,0.0546,0.0715,0.0679,0.0813,0.087,0.0864,0.0996,0.0571,0.0705,0.0703,0.0702,0.0702,0.0701,-0.1222,-0.1253,-0.1283,-0.1308,-0.1321,-0.1291,-0.1202,-0.1133,-0.0989,-0.0701,-0.0642,-0.0299,-0.0032,0.0432,0.0609,0.092,0.0874,0.1003,0.1047,0.1055,0.1102,0.0674,0.088,0.0879,0.0879,0.0879,0.0879,0,-0.1223,-0.1248,-0.1284,-0.1289,-0.1264,-0.1269,-0.1166,-0.1008,-0.0763,-0.0546,-0.0298,0.0141,0.0487,0.0763,0.1122,0.1285,0.1317,0.1351,0.1384,0.143,0.1102,0.1068,0.1282,0.1281,0.1281,0.1281,0.1281,0.1281,-0.1216,-0.1247,-0.1267,-0.1223,-0.1184,-0.1024,-0.0905,-0.0699,-0.0495,-0.0055,0.029,0.048,0.0787,0.1262,0.1593,0.1618,0.1769,0.1729,0.1827,0.1599,0.157,0.1542,0.1521,0.1827,0.1828,0.2135,0.2138,0.214]}],[{"header":{"parameterUnit":"m.s-1","parameterCategory":2,"la1":30.2991,"la2":30.254,"lo1":-89.0895,"lo2":-89.0444,"dy":0.0017,"dx":0.0017,"nx":28,"ny":28,"refTime":"2024-08-03T21:00:00:Z","depth":"2","parameterNumber":2,"parameterNumberName":"U-component_of_CURRENTS"},"data":[0,0,0,0,0,0,0,0,0,0,0,0,0,0,0,0,0,0,0,0,0,0,0,0,0,0,0,0,0,0,0,0,0,0,0,0,0,0,0,0,0,0,0,0,0,0,0,0,0,0,0,0,0,0,0,0,0,0,-0.2568,-0.2569,0,-0.2631,-0.2632,-0.2632,-0.2694,-0.2695,-0.2696,-0.2697,-0.2776,-0.2777,-0.2778,0,0,0,0,0,0,0,0,0,0,0,0,0,-0.2484,-0.2486,-0.2568,-0.2569,-0.257,-0.2631,-0.2632,-0.2632,-0.2694,-0.2695,-0.2697,-0.2698,-0.2775,-0.2777,-0.2778,0,0,0,0,0,0,0,0,0,0,0,0,0,-0.253,-0.2486,-0.2568,-0.2609,-0.2613,-0.2631,-0.2632,-0.2633,-0.2694,-0.2695,-0.2697,-0.2698,-0.2775,-0.2777,-0.2778,-0.2763,0,0,-0.2784,-0.2785,0,0,0,0,0,0,0,0,-0.2528,-0.2533,-0.2602,-0.2606,-0.2611,-0.2657,-0.2631,-0.2677,-0.2694,-0.2662,-0.2697,-0.2699,-0.2737,-0.2742,-0.2749,-0.2766,-0.277,-0.2784,-0.2785,-0.2786,-0.2787,0,0,0,0,0,0,0,-0.2524,-0.2531,-0.2592,-0.2603,-0.2608,-0.2618,-0.2626,-0.264,-0.2691,-0.2665,-0.267,-0.2678,-0.274,-0.2747,-0.2752,-0.2771,-0.2784,-0.2786,-0.2787,-0.2788,-0.2817,-0.2816,0,0,0,0,0,0,-0.2518,-0.2528,-0.259,-0.2594,-0.2573,-0.2619,-0.2628,-0.264,-0.2691,-0.27,-0.2677,-0.2681,-0.2743,-0.2749,-0.2755,-0.2779,-0.2786,-0.2788,-0.2789,-0.2817,-0.2816,-0.2816,0,0,0,0,0,0,-0.2516,-0.2523,-0.2588,-0.2563,-0.2572,-0.2619,-0.2632,-0.2641,-0.2658,-0.2699,-0.2709,-0.2687,-0.2745,-0.2752,-0.2801,-0.2781,-0.2789,-0.2791,-0.2817,-0.2817,-0.2816,-0.2801,0,0,0,0,0,0,-0.2514,-0.2522,-0.2533,-0.2563,-0.2573,-0.2597,-0.2631,-0.2641,-0.2661,-0.2667,-0.2711,-0.272,-0.2746,-0.2798,-0.2803,-0.2784,-0.2792,-0.2818,-0.2817,-0.2816,-0.2802,-0.28,-0.2799,0,0,0,0,0,-0.251,-0.2517,-0.2533,-0.2541,-0.2585,-0.2596,-0.2602,-0.2639,-0.266,-0.2661,-0.2717,-0.2719,-0.2795,-0.2801,-0.2806,-0.2787,-0.2818,-0.2817,-0.2816,-0.2803,-0.2801,-0.2799,0,0,0,0,0,0,-0.2489,-0.2525,-0.2543,-0.2562,-0.2577,-0.2607,-0.2614,-0.2636,-0.2677,-0.2693,-0.2733,-0.2745,-0.2776,-0.2783,-0.2787,-0.2791,-0.2798,-0.2798,-0.2786,-0.2784,-0.2782,-0.2756,-0.2794,0,0,0,0,0,-0.2487,-0.2493,-0.253,-0.2537,-0.2549,-0.258,-0.2592,-0.2616,-0.2654,-0.2673,-0.271,-0.2744,-0.2771,-0.2784,-0.281,-0.2817,-0.2797,-0.2801,-0.2799,-0.2797,-0.2778,-0.2778,-0.2774,-0.2813,-0.2813,-0.2813,0,0,-0.2473,-0.2496,-0.2498,-0.2531,-0.2548,-0.2567,-0.259,-0.2606,-0.2621,-0.2674,-0.2712,-0.2747,-0.2775,-0.2795,-0.2804,-0.2802,-0.2767,-0.2796,-0.2795,-0.2776,-0.2776,-0.2773,-0.2769,-0.2813,-0.2813,-0.2813,0,0,-0.245,-0.2475,-0.248,-0.2499,-0.253,-0.255,-0.2554,-0.2594,-0.2612,-0.2652,-0.2693,-0.2722,-0.2763,-0.2778,-0.279,-0.2787,-0.2766,-0.2785,-0.2748,-0.2748,-0.2745,-0.2741,-0.2673,-0.2664,-0.2775,-0.2775,-0.2775,0,-0.2441,-0.2454,-0.2478,-0.2497,-0.2512,-0.2543,-0.2557,-0.2574,-0.2625,-0.2637,-0.2663,-0.2723,-0.2749,-0.2761,-0.2762,-0.278,-0.2759,-0.2758,-0.2745,-0.2742,-0.2739,-0.267,-0.266,-0.2774,-0.2774,-0.2774,-0.2774,0,-0.2425,-0.2446,-0.2446,-0.2482,-0.25,-0.2508,-0.2544,-0.2563,-0.2593,-0.2615,-0.2643,-0.2687,-0.2718,-0.272,-0.2743,-0.2726,-0.2707,-0.2752,-0.275,-0.2734,-0.2662,-0.2652,-0.2773,-0.2773,-0.2774,-0.2774,0,0,-0.2372,-0.2428,-0.2428,-0.2447,-0.2496,-0.2504,-0.2527,-0.2549,-0.2563,-0.2598,-0.261,-0.2643,-0.2663,-0.2675,-0.2698,-0.2685,-0.2637,-0.2701,-0.2702,-0.2629,-0.2584,-0.2488,-0.2468,-0.2692,-0.2691,-0.269,-0.2527,0,-0.2352,-0.2382,-0.2416,-0.2434,-0.2451,-0.2493,-0.251,-0.2537,-0.2565,-0.2586,-0.26,-0.2629,-0.2645,-0.2665,-0.2654,-0.2659,-0.2616,-0.2672,-0.2612,-0.2608,-0.2525,-0.2456,-0.2303,-0.2139,-0.2518,-0.2516,-0.2515,0,-0.2316,-0.2346,-0.2369,-0.2418,-0.243,-0.2447,-0.2479,-0.2501,-0.2533,-0.2559,-0.2579,-0.2606,-0.2588,-0.262,-0.2569,-0.2609,-0.258,-0.2567,-0.2563,-0.2471,-0.2496,-0.2225,-0.2107,-0.2498,-0.2499,-0.2501,-0.2502,0,-0.2249,-0.2304,-0.2319,-0.2337,-0.2403,-0.2414,-0.2444,-0.2486,-0.2493,-0.2537,-0.2541,-0.2557,-0.2544,-0.2537,-0.2501,-0.2543,-0.2428,-0.2494,-0.236,-0.2351,-0.2202,-0.2181,-0.2438,-0.2438,-0.2438,-0.2439,-0.2439,0,-0.2204,-0.2212,-0.2289,-0.2297,-0.2309,-0.2373,-0.238,-0.2422,-0.2458,-0.2445,-0.2513,-0.2489,-0.2528,-0.2477,-0.2466,-0.2347,-0.2396,-0.231,-0.2302,-0.2187,-0.2168,-0.2487,-0.2494,-0.2433,-0.2434,-0.2435,-0.2436,0,-0.2118,-0.2171,-0.2191,-0.2261,-0.2275,-0.2283,-0.2329,-0.2328,-0.2384,-0.2367,-0.2374,-0.2406,-0.2339,-0.2332,-0.2291,-0.2265,-0.2202,-0.215,-0.1972,-0.1946,-0.2126,-0.2135,-0.1976,-0.1971,-0.1967,-0.1964,-0.1961,0,-0.2077,-0.208,-0.2143,-0.2142,-0.2169,-0.2192,-0.2194,-0.2273,-0.2272,-0.2294,-0.2263,-0.2222,-0.2155,-0.2038,-0.1991,-0.19,-0.2031,-0.1728,-0.1792,-0.2069,-0.2078,-0.2093,-0.2108,-0.1565,-0.1559,-0.1555,-0.1551,0,-0.1986,-0.201,-0.2022,-0.2028,-0.2033,-0.2049,-0.2065,-0.2059,-0.2125,-0.2111,-0.2065,-0.2018,-0.1893,-0.1739,-0.1642,-0.1593,-0.1742,-0.1627,-0.1951,-0.1725,-0.1674,-0.1687,-0.1715,-0.1508,-0.1512,-0.1516,-0.1518,-0.152,-0.1893,-0.1878,-0.1887,-0.188,-0.1892,-0.1889,-0.182,-0.1859,-0.1837,-0.1775,-0.1836,-0.17,-0.166,-0.1418,-0.1336,-0.1281,-0.1412,-0.1393,-0.1411,-0.1433,-0.1433,-0.1381,-0.1155,-0.1157,-0.1159,-0.116,-0.1162,0,-0.1754,-0.1742,-0.1732,-0.1697,-0.1629,-0.1709,-0.1695,-0.1601,-0.1512,-0.1535,-0.1467,-0.1285,-0.1167,-0.1135,-0.0975,-0.0955,-0.0981,-0.0934,-0.0985,-0.1025,-0.1062,-0.1049,-0.0664,-0.0663,-0.0662,-0.0661,0,0,-0.1671,-0.1604,-0.1605,-0.1443,-0.1401,-0.1267,-0.1223,-0.1161,-0.1139,-0.1057,-0.1002,-0.1068,-0.1076,-0.0874,-0.0825,-0.0718,-0.0867,-0.0675,-0.1067,-0.1164,-0.1199,-0.1308,-0.1329,0,0,0,0,0]},{"header":{"parameterUnit":"m.s-1","parameterCategory":2,"la1":30.2991,"la2":30.254,"lo1":-89.0895,"lo2":-89.0444,"dy":0.0017,"dx":0.0017,"nx":28,"ny":28,"refTime":"2024-08-03T21:00:00:Z","depth":"2","parameterNumber":3,"parameterNumberName":"V-component_of_CURRENTS"},"data":[0,0,0,0,0,0,0,0,0,0,0,0,0,0,0,0,0,0,0,0,0,0,0,0,0,0,0,0,0,0,0,0,0,0,0,0,0,0,0,0,0,0,0,0,0,0,0,0,0,0,0,0,0,0,0,0,0,0,-0.0374,-0.0373,0,-0.0225,-0.0223,-0.0221,-0.0097,-0.0096,-0.0095,-0.0095,0.0146,0.0152,0.0158,0,0,0,0,0,0,0,0,0,0,0,0,0,-0.047,-0.0469,-0.0374,-0.0372,-0.0371,-0.0225,-0.0223,-0.022,-0.0097,-0.0096,-0.0095,-0.0094,0.0145,0.0151,0.0158,0,0,0,0,0,0,0,0,0,0,0,0,0,-0.038,-0.0469,-0.0374,-0.0297,-0.0289,-0.0226,-0.0223,-0.0219,-0.0097,-0.0096,-0.0095,-0.0094,0.0142,0.0151,0.0159,0.0191,0,0,0.0185,0.0189,0,0,0,0,0,0,0,0,-0.0385,-0.0375,-0.031,-0.0302,-0.0293,-0.0184,-0.0169,-0.008,-0.0097,-0.0163,-0.0095,-0.0093,0.0039,0.0056,0.009,0.0202,0.0212,0.0186,0.0191,0.0195,0.0198,0,0,0,0,0,0,0,-0.0392,-0.0381,-0.0308,-0.0309,-0.0299,-0.0243,-0.0229,-0.0151,-0.0063,-0.0157,-0.015,-0.0144,0.0046,0.0081,0.0097,0.0216,0.0186,0.0194,0.0199,0.0202,0.0374,0.0374,0,0,0,0,0,0,-0.0429,-0.0387,-0.0313,-0.0304,-0.0345,-0.0243,-0.0227,-0.0215,-0.0065,-0.0044,-0.0145,-0.0139,0.0066,0.0087,0.0106,0.016,0.0195,0.0203,0.0208,0.0375,0.0374,0.0373,0,0,0,0,0,0,-0.0431,-0.0423,-0.0319,-0.0348,-0.0332,-0.0244,-0.023,-0.0213,-0.0176,-0.0058,-0.0034,-0.0128,0.0068,0.0094,0.0171,0.017,0.0207,0.0215,0.0376,0.0375,0.0374,0.0262,0,0,0,0,0,0,-0.0434,-0.0425,-0.0426,-0.035,-0.0332,-0.0288,-0.0232,-0.0211,-0.0177,-0.0167,-0.0035,-0.0012,0.0071,0.0158,0.018,0.0182,0.0222,0.0376,0.0375,0.0374,0.0267,0.0258,0.025,0,0,0,0,0,-0.0438,-0.0443,-0.0427,-0.0418,-0.0337,-0.0289,-0.0274,-0.0203,-0.0178,-0.0165,-0.008,-0.0016,0.0166,0.0164,0.019,0.0195,0.0377,0.0375,0.0374,0.0271,0.0259,0.025,0,0,0,0,0,0,-0.0482,-0.0429,-0.041,-0.0398,-0.0355,-0.0271,-0.0255,-0.0215,-0.0138,-0.0126,-0.0016,0.0014,0.008,0.0146,0.0141,0.0238,0.0279,0.0283,0.0191,0.0182,0.0174,0.0161,0.0229,0,0,0,0,0,-0.0499,-0.0488,-0.0432,-0.0425,-0.0409,-0.0338,-0.0311,-0.0267,-0.0195,-0.016,-0.0074,0.0015,0.0094,0.0143,0.0222,0.0278,0.0335,0.0294,0.0286,0.0278,0.0284,0.0356,0.0355,0.0369,0.0369,0.0369,0,0,-0.0515,-0.0487,-0.0479,-0.0435,-0.0394,-0.0371,-0.0316,-0.0284,-0.0258,-0.0146,-0.0084,-0.0009,0.01,0.0164,0.0199,0.0222,0.03,0.0277,0.0269,0.028,0.0355,0.0354,0.0353,0.0368,0.0368,0.0368,0,0,-0.0545,-0.0519,-0.052,-0.0491,-0.0449,-0.0402,-0.0403,-0.033,-0.0288,-0.0232,-0.0147,-0.0078,0.004,0.012,0.0175,0.0166,0.0249,0.0184,0.0142,0.0211,0.021,0.0211,0.0259,0.0265,0.0184,0.0183,0.0183,0,-0.057,-0.056,-0.0514,-0.0509,-0.0492,-0.0426,-0.0422,-0.0371,-0.0282,-0.025,-0.0228,-0.0063,0.0022,0.0112,0.0109,0.0149,0.0193,0.017,0.0199,0.0201,0.0204,0.0254,0.0262,0.0178,0.0178,0.0179,0.018,0,-0.0595,-0.059,-0.059,-0.0561,-0.0535,-0.0523,-0.046,-0.0425,-0.0379,-0.0323,-0.0242,-0.0134,-0.0037,-0.0006,0.0055,0.0114,0.0139,0.0175,0.0222,0.0196,0.025,0.026,0.017,0.0172,0.0174,0.0175,0,0,-0.0643,-0.0615,-0.0616,-0.0614,-0.0563,-0.0544,-0.0509,-0.0453,-0.0428,-0.0348,-0.0305,-0.0184,-0.0136,-0.0071,0.0008,0.0071,0.0116,0.012,0.0127,0.0162,0.0253,0.0263,0.0276,0.0154,0.0156,0.0157,0.0275,0,-0.0678,-0.0694,-0.066,-0.0663,-0.0663,-0.0599,-0.0571,-0.0512,-0.0453,-0.0395,-0.0289,-0.0219,-0.0157,-0.0119,-0.0048,0.0086,0.0141,0.008,0.028,0.0286,0.0293,0.0288,0.0251,0.0354,0.0286,0.0287,0.0289,0,-0.0711,-0.0718,-0.074,-0.0715,-0.0709,-0.0699,-0.0646,-0.0612,-0.0515,-0.047,-0.0388,-0.0304,-0.0192,-0.0149,0.0051,0.0008,0.0114,0.021,0.0217,0.0279,0.0316,0.0375,0.0376,0.0307,0.0305,0.0304,0.0303,0,-0.0772,-0.0767,-0.0792,-0.0785,-0.0749,-0.0744,-0.0717,-0.064,-0.0604,-0.0521,-0.0483,-0.0351,-0.0269,-0.0126,0.0065,0.0059,0.0281,0.0302,0.041,0.0411,0.0449,0.0451,0.0431,0.0431,0.043,0.043,0.043,0,-0.082,-0.0835,-0.0827,-0.0842,-0.0857,-0.081,-0.0804,-0.0758,-0.0684,-0.0629,-0.0533,-0.0454,-0.0257,-0.0104,0.0049,0.0262,0.0271,0.0407,0.0448,0.0405,0.0402,0.0422,0.042,0.0435,0.0434,0.0433,0.0432,0,-0.0878,-0.0875,-0.0901,-0.0893,-0.0891,-0.0904,-0.0864,-0.0845,-0.0778,-0.0704,-0.0678,-0.0513,-0.0316,-0.0121,0.0133,0.0251,0.0444,0.0514,0.0437,0.0467,0.0527,0.0517,0.0639,0.0641,0.0642,0.0643,0.0644,0,-0.0908,-0.0934,-0.0953,-0.0966,-0.0968,-0.0973,-0.0965,-0.0906,-0.0867,-0.0719,-0.0676,-0.0492,-0.0329,0.0013,0.0241,0.0489,0.0499,0.0588,0.0575,0.0523,0.0551,0.0539,0.0528,0.0575,0.0575,0.0575,0.0575,0,-0.0962,-0.0975,-0.0996,-0.103,-0.1043,-0.1044,-0.1021,-0.0997,-0.0893,-0.0818,-0.0656,-0.0522,-0.0203,0.0066,0.0354,0.049,0.0539,0.06,0.0596,0.0517,0.0469,0.0494,0.0484,0.0577,0.0577,0.0577,0.0577,0.0577,-0.0995,-0.1024,-0.1051,-0.1079,-0.1097,-0.1089,-0.1085,-0.1026,-0.0956,-0.0809,-0.0651,-0.0444,-0.0179,0.0222,0.0437,0.0602,0.0607,0.065,0.0647,0.0645,0.0605,0.0561,0.0679,0.0679,0.0679,0.068,0.068,0,-0.1019,-0.1048,-0.1084,-0.1117,-0.1145,-0.1141,-0.1099,-0.1063,-0.0979,-0.0816,-0.0651,-0.0335,-0.0039,0.0209,0.0488,0.0673,0.0649,0.068,0.0627,0.0624,0.0622,0.0579,0.0647,0.0647,0.0648,0.0648,0,0,-0.1028,-0.1069,-0.1091,-0.1144,-0.1172,-0.1182,-0.1159,-0.1081,-0.096,-0.0786,-0.063,-0.0393,-0.0051,0.0148,0.0381,0.052,0.0512,0.0515,0.0521,0.0426,0.0422,0.0585,0.0514,0,0,0,0,0]}],[{"header":{"parameterUnit":"m.s-1","parameterCategory":2,"la1":30.2991,"la2":30.254,"lo1":-89.0895,"lo2":-89.0444,"dy":0.0017,"dx":0.0017,"nx":28,"ny":28,"refTime":"2024-08-03T21:00:00:Z","depth":"4","parameterNumber":2,"parameterNumberName":"U-component_of_CURRENTS"},"data":[0,0,0,0,0,0,0,0,0,0,0,0,0,0,0,0,0,0,0,0,0,0,0,0,0,0,0,0,0,0,0,0,0,0,0,0,0,0,0,0,0,0,0,0,0,0,0,0,0,0,0,0,0,0,0,0,0,0,-0.1607,-0.1607,0,-0.1646,-0.1647,-0.1647,-0.1666,-0.1667,-0.1667,-0.1667,-0.1605,-0.1603,-0.1601,0,0,0,0,0,0,0,0,0,0,0,0,0,-0.1559,-0.156,-0.1607,-0.1607,-0.1608,-0.1646,-0.1647,-0.1647,-0.1666,-0.1667,-0.1667,-0.1667,-0.1606,-0.1603,-0.1601,0,0,0,0,0,0,0,0,0,0,0,0,0,-0.1585,-0.156,-0.1607,-0.1624,-0.1626,-0.1646,-0.1647,-0.1647,-0.1666,-0.1667,-0.1667,-0.1667,-0.1606,-0.1604,-0.1601,-0.1578,0,0,-0.1593,-0.1591,0,0,0,0,0,0,0,0,-0.1584,-0.1587,-0.1621,-0.1623,-0.1625,-0.1654,-0.1607,-0.162,-0.1666,-0.1649,-0.1667,-0.1667,-0.1613,-0.161,-0.1615,-0.1575,-0.1572,-0.1592,-0.1591,-0.1589,-0.1589,0,0,0,0,0,0,0,-0.1582,-0.1585,-0.162,-0.1622,-0.1624,-0.1634,-0.1638,-0.161,-0.1625,-0.165,-0.1652,-0.166,-0.1613,-0.1618,-0.1613,-0.1571,-0.1592,-0.159,-0.1588,-0.1587,-0.1626,-0.1629,0,0,0,0,0,0,-0.1581,-0.1584,-0.1619,-0.1622,-0.1607,-0.1635,-0.1639,-0.1642,-0.1628,-0.1627,-0.166,-0.1661,-0.1622,-0.1616,-0.1611,-0.1661,-0.1589,-0.1587,-0.1585,-0.1624,-0.1627,-0.163,0,0,0,0,0,0,-0.1579,-0.1583,-0.1617,-0.1605,-0.1611,-0.1635,-0.1639,-0.1643,-0.1676,-0.1637,-0.1634,-0.1693,-0.1622,-0.1615,-0.1634,-0.1656,-0.1586,-0.1583,-0.1621,-0.1625,-0.1629,-0.171,0,0,0,0,0,0,-0.1578,-0.1582,-0.1597,-0.1605,-0.1611,-0.1645,-0.1639,-0.1644,-0.168,-0.1682,-0.1663,-0.1656,-0.1622,-0.1639,-0.1632,-0.1651,-0.1581,-0.1617,-0.1622,-0.1627,-0.1704,-0.1716,-0.1727,0,0,0,0,0,-0.1576,-0.1587,-0.1598,-0.1603,-0.1627,-0.1646,-0.1651,-0.1667,-0.1681,-0.1698,-0.1707,-0.1658,-0.1666,-0.1639,-0.163,-0.1648,-0.1615,-0.1621,-0.1627,-0.1699,-0.1714,-0.1727,0,0,0,0,0,0,-0.1577,-0.159,-0.1602,-0.1619,-0.1642,-0.1651,-0.1672,-0.1688,-0.1709,-0.1719,-0.1686,-0.1681,-0.1707,-0.1678,-0.1649,-0.1681,-0.1634,-0.1638,-0.1692,-0.1706,-0.1717,-0.1695,-0.1579,0,0,0,0,0,-0.1584,-0.1595,-0.1614,-0.1632,-0.1646,-0.1668,-0.1685,-0.1699,-0.1713,-0.1725,-0.1719,-0.1718,-0.172,-0.1715,-0.1708,-0.1717,-0.1672,-0.1729,-0.1741,-0.175,-0.1731,-0.1709,-0.1716,-0.165,-0.165,-0.165,0,0,-0.1592,-0.16,-0.1609,-0.1634,-0.1654,-0.1679,-0.1679,-0.1713,-0.1738,-0.1711,-0.1751,-0.1755,-0.1736,-0.1757,-0.1765,-0.1735,-0.1751,-0.1758,-0.1766,-0.1741,-0.1716,-0.1722,-0.1727,-0.1654,-0.1653,-0.1653,0,0,-0.1607,-0.1622,-0.1639,-0.1659,-0.1695,-0.1705,-0.1724,-0.1755,-0.1775,-0.1811,-0.181,-0.1835,-0.1832,-0.1828,-0.1822,-0.1893,-0.1818,-0.1901,-0.1927,-0.1908,-0.1911,-0.1914,-0.1875,-0.1874,-0.19,-0.19,-0.19,0,-0.1624,-0.1638,-0.1651,-0.1675,-0.1695,-0.1723,-0.1752,-0.1775,-0.1812,-0.1828,-0.1834,-0.1868,-0.1859,-0.1878,-0.1913,-0.1912,-0.1883,-0.1871,-0.1918,-0.192,-0.1921,-0.188,-0.1877,-0.1905,-0.1904,-0.1904,-0.1903,0,-0.1643,-0.1669,-0.1683,-0.1719,-0.1744,-0.1772,-0.1802,-0.1838,-0.1868,-0.1885,-0.1928,-0.1933,-0.1944,-0.1963,-0.1955,-0.1975,-0.1947,-0.1938,-0.1872,-0.1932,-0.1886,-0.1882,-0.1911,-0.191,-0.1908,-0.1907,0,0,-0.164,-0.1689,-0.1698,-0.172,-0.1767,-0.1786,-0.1834,-0.1872,-0.1904,-0.1942,-0.1969,-0.2005,-0.2011,-0.2007,-0.2012,-0.2003,-0.2004,-0.198,-0.1977,-0.1921,-0.1946,-0.1825,-0.1808,-0.2004,-0.2003,-0.2003,-0.1913,0,-0.1657,-0.1701,-0.1724,-0.1773,-0.1794,-0.1833,-0.1871,-0.1911,-0.1944,-0.1977,-0.1992,-0.2023,-0.2026,-0.2045,-0.2038,-0.2014,-0.1995,-0.2028,-0.1913,-0.1908,-0.1776,-0.1799,-0.2002,-0.1909,-0.1908,-0.1907,-0.1906,0,-0.1656,-0.1686,-0.1735,-0.1788,-0.1805,-0.1843,-0.19,-0.1939,-0.1985,-0.2012,-0.2039,-0.2049,-0.2058,-0.2054,-0.201,-0.2032,-0.1992,-0.1966,-0.1962,-0.1806,-0.1777,-0.1836,-0.1897,-0.1898,-0.1898,-0.1899,-0.19,0,-0.1615,-0.1685,-0.1723,-0.1743,-0.1814,-0.1849,-0.1892,-0.195,-0.1977,-0.2033,-0.2046,-0.2064,-0.206,-0.2028,-0.1977,-0.1998,-0.1903,-0.192,-0.1767,-0.1758,-0.1856,-0.1854,-0.1873,-0.1873,-0.1873,-0.1873,-0.1874,0,-0.1587,-0.162,-0.1713,-0.1729,-0.1779,-0.1838,-0.1889,-0.1938,-0.199,-0.1994,-0.2058,-0.2039,-0.2054,-0.2004,-0.1965,-0.183,-0.1886,-0.1752,-0.1721,-0.1897,-0.1901,-0.1852,-0.1851,-0.187,-0.1871,-0.1871,-0.1872,0,-0.1518,-0.1583,-0.163,-0.1724,-0.1756,-0.1791,-0.1875,-0.1893,-0.1969,-0.1968,-0.1983,-0.2011,-0.194,-0.1921,-0.1851,-0.1787,-0.1697,-0.1637,-0.1804,-0.1788,-0.1571,-0.1576,-0.1457,-0.1452,-0.1447,-0.1444,-0.1441,0,-0.1479,-0.15,-0.1612,-0.1636,-0.1681,-0.1746,-0.1771,-0.1866,-0.1871,-0.1916,-0.1883,-0.1863,-0.1853,-0.1642,-0.1661,-0.1561,-0.1546,-0.1501,-0.1557,-0.1543,-0.1526,-0.1538,-0.1548,-0.1434,-0.1433,-0.1431,-0.143,0,-0.1399,-0.1459,-0.1494,-0.1547,-0.1587,-0.1628,-0.1672,-0.1664,-0.1734,-0.1819,-0.1723,-0.1675,-0.1583,-0.153,-0.1457,-0.1397,-0.1539,-0.1456,-0.1466,-0.1518,-0.1514,-0.1504,-0.1519,-0.1415,-0.1417,-0.1419,-0.142,0,-0.1335,-0.1343,-0.1395,-0.1421,-0.1473,-0.1467,-0.1523,-0.1502,-0.1523,-0.1577,-0.1531,-0.151,-0.1542,-0.144,-0.1372,-0.1303,-0.1295,-0.1271,-0.1291,-0.1308,-0.1303,-0.1279,-0.106,0,0,0,0,0,-0.1254,-0.1235,-0.1257,-0.126,-0.1305,-0.1328,-0.142,-0.1474,-0.154,-0.1423,-0.1475,-0.1382,-0.1287,-0.1294,-0.1186,-0.1312,-0.1308,-0.1186,-0.1295,-0.1331,-0.1349,-0.1359,0,0,0,0,0,0,-0.1192,-0.1205,-0.1203,-0.1112,-0.1077,-0.1099,-0.1155,-0.1215,-0.1172,-0.1253,-0.1204,-0.1274,-0.1202,-0.1281,-0.1134,-0.1136,-0.1177,-0.1194,-0.119,-0.1321,-0.1337,-0.1351,-0.1368,0,0,0,0,0]},{"header":{"parameterUnit":"m.s-1","parameterCategory":2,"la1":30.2991,"la2":30.254,"lo1":-89.0895,"lo2":-89.0444,"dy":0.0017,"dx":0.0017,"nx":28,"ny":28,"refTime":"2024-08-03T21:00:00:Z","depth":"4","parameterNumber":3,"parameterNumberName":"V-component_of_CURRENTS"},"data":[0,0,0,0,0,0,0,0,0,0,0,0,0,0,0,0,0,0,0,0,0,0,0,0,0,0,0,0,0,0,0,0,0,0,0,0,0,0,0,0,0,0,0,0,0,0,0,0,0,0,0,0,0,0,0,0,0,0,-0.0274,-0.0273,0,-0.0204,-0.0203,-0.0202,-0.0149,-0.0149,-0.0149,-0.0149,-0.0105,-0.0104,-0.0103,0,0,0,0,0,0,0,0,0,0,0,0,0,-0.0312,-0.0312,-0.0274,-0.0273,-0.0273,-0.0204,-0.0203,-0.0202,-0.0149,-0.0149,-0.0149,-0.0149,-0.0106,-0.0104,-0.0103,0,0,0,0,0,0,0,0,0,0,0,0,0,-0.0271,-0.0311,-0.0274,-0.0241,-0.0238,-0.0205,-0.0203,-0.0201,-0.0149,-0.0149,-0.0149,-0.0149,-0.0106,-0.0105,-0.0103,-0.0098,0,0,-0.0098,-0.0098,0,0,0,0,0,0,0,0,-0.0273,-0.0269,-0.0246,-0.0243,-0.0239,-0.0188,-0.0201,-0.0169,-0.015,-0.0179,-0.0149,-0.0149,-0.0138,-0.0134,-0.0116,-0.0096,-0.0094,-0.0098,-0.0097,-0.0097,-0.0096,0,0,0,0,0,0,0,-0.0276,-0.0272,-0.0242,-0.0246,-0.0242,-0.0213,-0.0207,-0.0194,-0.0158,-0.0176,-0.0173,-0.0172,-0.0136,-0.0117,-0.0114,-0.0093,-0.0098,-0.0097,-0.0096,-0.0095,-0.0024,-0.0023,0,0,0,0,0,0,-0.0295,-0.0275,-0.0245,-0.0241,-0.026,-0.0213,-0.0206,-0.0202,-0.0158,-0.0152,-0.0172,-0.0169,-0.012,-0.0116,-0.0113,-0.0078,-0.0097,-0.0095,-0.0094,-0.0025,-0.0024,-0.0023,0,0,0,0,0,0,-0.0296,-0.0293,-0.0247,-0.0259,-0.0252,-0.0214,-0.0209,-0.0201,-0.0185,-0.0155,-0.0148,-0.0165,-0.012,-0.0115,-0.0089,-0.0078,-0.0094,-0.0093,-0.0026,-0.0025,-0.0023,-0.0026,0,0,0,0,0,0,-0.0297,-0.0294,-0.0298,-0.026,-0.0252,-0.0235,-0.0209,-0.02,-0.0186,-0.0182,-0.0147,-0.0142,-0.0119,-0.0092,-0.0088,-0.0076,-0.0092,-0.0028,-0.0026,-0.0024,-0.0028,-0.0025,-0.0023,0,0,0,0,0,-0.0299,-0.0304,-0.0298,-0.0295,-0.0259,-0.0236,-0.0229,-0.0198,-0.0186,-0.0182,-0.0146,-0.0143,-0.0077,-0.009,-0.0085,-0.0073,-0.0028,-0.0026,-0.0024,-0.0029,-0.0026,-0.0023,0,0,0,0,0,0,-0.0323,-0.0298,-0.0291,-0.0289,-0.0271,-0.0229,-0.0224,-0.0204,-0.0172,-0.0168,-0.0135,-0.0127,-0.0098,-0.0086,-0.01,-0.0045,-0.0051,-0.0048,-0.0056,-0.0053,-0.0051,-0.0064,-0.0091,0,0,0,0,0,-0.0333,-0.0331,-0.0304,-0.0305,-0.0298,-0.0263,-0.0251,-0.0232,-0.02,-0.0185,-0.0159,-0.0124,-0.0085,-0.0071,-0.0043,-0.0021,-0.0003,-0.0007,-0.0005,-0.0004,-0.0009,0.0048,0.0054,-0.0016,-0.0016,-0.0016,0,0,-0.0344,-0.0332,-0.0331,-0.0311,-0.0293,-0.0278,-0.0254,-0.0241,-0.0222,-0.0187,-0.0157,-0.0123,-0.0077,-0.004,-0.0027,-0.003,0.0024,-0.0001,0.0,-0.0007,0.0051,0.0057,0.0064,-0.0014,-0.0015,-0.0015,0,0,-0.0363,-0.0355,-0.0357,-0.0342,-0.0324,-0.0298,-0.0299,-0.0262,-0.0239,-0.0211,-0.0167,-0.012,-0.0087,-0.0032,-0.0003,0.0025,0.0033,0.0027,0.0027,0.0083,0.0089,0.0094,0.0113,0.012,0.0029,0.0029,0.0029,0,-0.038,-0.0376,-0.0356,-0.0352,-0.0341,-0.031,-0.0304,-0.0274,-0.0232,-0.021,-0.0209,-0.0112,-0.0075,0.0,0.0017,0.0031,0.0045,0.0012,0.0085,0.0091,0.0096,0.0115,0.0123,0.0029,0.0029,0.0029,0.0029,0,-0.0394,-0.0392,-0.0393,-0.0375,-0.0359,-0.0353,-0.0313,-0.0292,-0.0267,-0.0232,-0.0172,-0.0109,-0.0053,-0.0024,0.0004,0.0071,0.0062,0.0079,0.0074,0.0103,0.0121,0.0129,0.0029,0.0029,0.0029,0.0029,0,0,-0.0429,-0.0408,-0.041,-0.0407,-0.0372,-0.0362,-0.0328,-0.0286,-0.0268,-0.0216,-0.018,-0.0086,-0.0058,-0.0022,0.0028,0.0083,0.0142,0.0091,0.0094,0.0102,0.0234,0.0207,0.0213,0.0168,0.017,0.0172,0.0225,0,-0.0448,-0.0453,-0.0429,-0.0426,-0.0421,-0.038,-0.0354,-0.0311,-0.0273,-0.0233,-0.0146,-0.0102,-0.0055,-0.0033,0.0037,0.0112,0.0165,0.0123,0.0211,0.0213,0.0181,0.0224,0.0177,0.0231,0.0233,0.0235,0.0236,0,-0.0467,-0.0467,-0.0476,-0.0452,-0.0447,-0.0441,-0.0401,-0.0373,-0.03,-0.0271,-0.0201,-0.0147,-0.0049,-0.0024,0.0124,0.0089,0.0158,0.0217,0.0221,0.0201,0.0203,0.0202,0.0251,0.025,0.0249,0.0248,0.0247,0,-0.0507,-0.0497,-0.0509,-0.0503,-0.0472,-0.0469,-0.045,-0.0392,-0.0371,-0.0303,-0.0287,-0.0168,-0.0119,-0.0005,0.0121,0.0118,0.0268,0.0282,0.0325,0.0322,0.0329,0.0322,0.0387,0.0387,0.0387,0.0387,0.0387,0,-0.0529,-0.054,-0.0538,-0.0546,-0.056,-0.052,-0.0524,-0.0487,-0.0437,-0.0406,-0.032,-0.0269,-0.0112,-0.0005,0.0108,0.0236,0.0262,0.0327,0.0344,0.0324,0.0317,0.0334,0.0327,0.0389,0.0389,0.0388,0.0388,0,-0.0566,-0.0565,-0.0585,-0.058,-0.0585,-0.0599,-0.0586,-0.058,-0.0532,-0.049,-0.0473,-0.0343,-0.0206,-0.0055,0.0129,0.0208,0.0338,0.0379,0.0323,0.0335,0.0351,0.0344,0.0421,0.042,0.042,0.042,0.042,0,-0.0579,-0.0599,-0.0631,-0.0652,-0.0658,-0.0674,-0.0681,-0.0639,-0.062,-0.0523,-0.0497,-0.037,-0.0268,-0.0038,0.0118,0.0311,0.0346,0.039,0.0398,0.0351,0.036,0.0353,0.0346,0.0419,0.0419,0.0419,0.0419,0,-0.0607,-0.0636,-0.0658,-0.0708,-0.0737,-0.0754,-0.0753,-0.074,-0.0669,-0.0634,-0.0505,-0.0373,-0.022,-0.0037,0.0106,0.0254,0.0348,0.0388,0.039,0.0397,0.035,0.0358,0.0351,0.0418,0.0419,0.0419,0.0419,0,-0.0638,-0.0669,-0.0712,-0.0751,-0.0796,-0.0809,-0.08,-0.0749,-0.0718,-0.0591,-0.0547,-0.0369,-0.0259,-0.0065,0.0078,0.0204,0.0238,0.027,0.0278,0.0281,0.0228,0.0146,0.0172,0,0,0,0,0,-0.0654,-0.0694,-0.0741,-0.0789,-0.0835,-0.0856,-0.0832,-0.0804,-0.0733,-0.0648,-0.0589,-0.0437,-0.0211,-0.011,0.0013,0.0059,0.0242,0.0203,0.0278,0.0414,0.0415,0.0375,0,0,0,0,0,0,-0.0666,-0.0722,-0.0747,-0.0814,-0.0854,-0.0894,-0.088,-0.0825,-0.0756,-0.0665,-0.054,-0.0448,-0.0229,-0.0299,-0.0005,0.0037,0.0094,0.0317,0.0319,0.0413,0.0414,0.0415,0.0374,0,0,0,0,0]}]]